Hibbing, MN

5:46 AM CDT on May 30, 2017 (GMT -0500)
Chisholm-hibbing

Weather History for KHIB - February, 2013

Change the Weather History Date:

Thursday, February 28, 2013

  Actual Average Record
Temperature  
Mean Temperature 26 °F -  
Max Temperature 30 °F 30 °F 48 °F (1985)
Min Temperature 19 °F 8 °F -25 °F (2014)
Degree Days  
Heating Degree Days 40    
Moisture  
Dew Point 12 °F    
Average Humidity 58    
Maximum Humidity 72    
Minimum Humidity 43    
Precipitation  
Precipitation 0.00 in - - ()
Sea Level Pressure  
Sea Level Pressure 30.25 in    
Wind  
Wind Speed 10 mph (NE)    
Max Wind Speed 13 mph    
Max Gust Speed 20 mph    
Visibility 10 miles    
Events Snow    
Averages and records for this station are not official NWS values.
T = Trace of Precipitation, MM = Missing Value Source: NWS Daily Summary

Daily Weather History Graph

Daily Weather History Graph

Search for Another Location

Airport or City:

Trip Planner

Search our weather history database for the weather conditions in past years. The results will help you decide how hot, cold, wet, or windy it might be!

Date:

Astronomy

Feb. 28, 2013 Rise Set
Actual Time 6:52 AM CST 5:55 PM CST
Civil Twilight 6:22 AM CST 6:26 PM CST
Nautical Twilight 5:46 AM CST 7:01 PM CST
Astronomical Twilight 5:11 AM CST 7:37 PM CST
Moon 9:41 PM CST (2/28) 7:47 AM CST (2/28)
Length of Visible Light 12h 04m
Length of Day
11h 02m
Waning Gibbous, 90% of the Moon is Illuminated
Feb 28
Waning Gibbous
Mar 4
Last Quarter
Mar 11
New
Mar 19
First Quarter
Mar 27
Full

Hourly Weather History & Observations

Time (CST) Temp. Windchill Dew Point Humidity Pressure Visibility Wind Dir Wind Speed Gust Speed Precip Events Conditions
12:53 AM 26.1 °F 15.0 °F 17.1 °F 69% 30.14 in 10.0 mi NNE 12.7 mph 19.6 mph N/A   Overcast
1:53 AM 26.1 °F 17.6 °F 17.1 °F 69% 30.14 in 10.0 mi NNE 8.1 mph - N/A   Overcast
2:53 AM 25.0 °F 14.2 °F 17.1 °F 72% 30.16 in 10.0 mi NNE 11.5 mph 17.3 mph N/A   Overcast
3:53 AM 25.0 °F 16.3 °F 16.0 °F 69% 30.17 in 10.0 mi North 8.1 mph - N/A   Overcast
4:53 AM 24.1 °F 14.4 °F 16.0 °F 71% 30.20 in 10.0 mi NNE 9.2 mph - N/A   Overcast
5:53 AM 23.0 °F 12.4 °F 15.1 °F 72% 30.21 in 9.0 mi NE 10.4 mph - 0.00 in Snow Light Snow
6:53 AM 23.0 °F 14.7 °F 15.1 °F 72% 30.22 in 10.0 mi NNE 6.9 mph - N/A   Overcast
7:53 AM 21.9 °F 11.7 °F 12.9 °F 68% 30.24 in 10.0 mi NNE 9.2 mph - N/A   Overcast
8:53 AM 21.9 °F 11.0 °F 12.9 °F 68% 30.25 in 10.0 mi NE 10.4 mph - N/A   Overcast
9:53 AM 24.1 °F 13.1 °F 12.9 °F 62% 30.26 in 10.0 mi NNE 11.5 mph - 0.00 in   Overcast
10:53 AM 26.1 °F 15.0 °F 15.1 °F 63% 30.26 in 10.0 mi North 12.7 mph - 0.00 in   Mostly Cloudy
11:34 AM 26.6 °F 20.0 °F 12.2 °F 55% 30.19 in 10.0 mi NE 5.8 mph - N/A   Scattered Clouds
11:53 AM 28.0 °F 20.0 °F 14.0 °F 56% 30.26 in 10.0 mi NNE 8.1 mph - N/A   Clear
12:53 PM 28.9 °F 20.4 °F 12.0 °F 49% 30.25 in 10.0 mi NE 9.2 mph - N/A   Clear
1:53 PM 30.9 °F 22.8 °F 12.0 °F 46% 30.25 in 10.0 mi ENE 9.2 mph - N/A   Clear
3:53 PM 30.9 °F 21.7 °F 12.0 °F 46% 30.25 in 10.0 mi North 11.5 mph - N/A   Clear
4:53 PM 30.0 °F 21.7 °F 10.0 °F 43% 30.27 in 10.0 mi ENE 9.2 mph - N/A   Clear
5:53 PM 28.0 °F 20.0 °F 12.0 °F 51% 30.29 in 10.0 mi NNE 8.1 mph - N/A   Clear
6:53 PM 27.0 °F 18.7 °F 10.9 °F 51% 30.31 in 10.0 mi NNE 8.1 mph - N/A   Clear
7:53 PM 25.0 °F 15.5 °F 8.1 °F 49% 30.32 in 10.0 mi NE 9.2 mph - N/A   Clear
8:53 PM 24.1 °F 17.0 °F 8.1 °F 51% 30.34 in 10.0 mi NE 5.8 mph - N/A   Clear
9:53 PM 21.9 °F 13.4 °F 6.1 °F 51% 30.34 in 10.0 mi NE 6.9 mph - N/A   Clear
10:53 PM 21.0 °F 13.4 °F 5.0 °F 50% 30.34 in 10.0 mi NE 5.8 mph - N/A   Clear
11:53 PM 19.0 °F 11.1 °F 3.0 °F 50% 30.34 in 10.0 mi ENE 5.8 mph - N/A   Clear